Location: 476 Grange Obs.
(45.1420°N, 7.1420°E)
Time: 14:45:33
(UTC+01:00)

ISS - Visible Passes

Search period start: 23 January 2018 00:00
Search period end: 02 February 2018 00:00
Orbit: 402 x 407 km, 51.6° (Epoch: 23 January)

Date Brightness Start Highest point End Pass type
(mag) Time Alt. Az. Time Alt. Az. Time Alt. Az.
24 Jan -1.5 19:02:30 10° SSE 19:03:27 13° SSE 19:03:27 13° SSE visible
25 Jan -1.7 19:44:57 10° SW 19:46:22 23° SW 19:46:22 23° SW visible
26 Jan -2.8 18:53:01 10° SSW 18:55:55 30° SE 18:56:31 28° ESE visible
26 Jan -0.2 20:29:08 10° W 20:29:11 10° W 20:29:11 10° W visible
27 Jan -1.9 18:01:32 10° S 18:03:46 17° SE 18:06:01 10° E visible
27 Jan -3.0 19:36:40 10° WSW 19:39:14 51° W 19:39:14 51° W visible
28 Jan -3.8 18:44:21 10° SW 18:47:35 67° SSE 18:49:12 26° ENE visible
28 Jan -0.6 20:21:16 10° W 20:21:52 14° WNW 20:21:52 14° WNW visible
29 Jan -3.0 19:28:39 10° W 19:31:46 42° NNW 19:31:46 42° NNW visible
30 Jan -3.6 18:36:05 10° WSW 18:39:20 62° NNW 18:41:36 18° NE visible
30 Jan -0.9 20:13:24 10° WNW 20:14:16 15° NW 20:14:16 15° NW visible
31 Jan -2.5 19:20:44 10° WNW 19:23:40 30° NNW 19:24:03 29° N visible
01 Feb -2.8 18:28:03 10° W 18:31:08 37° NNW 18:33:49 13° NE visible
01 Feb -1.1 20:05:23 10° NW 20:06:28 17° NW 20:06:28 17° NW visible
